^^
Saratoga-Weather Station Historical Data
Daily Summary for April 30, 2021 Units:  Metric    English   Both
Daily Weekly Monthly Yearly Custom
  High: Low: Average:
Temperature: 16.4 °C 10.3 °C 12.7 °C
Dew Point: 9.6 °C 6.6 °C 7.8 °C
Humidity: 79% 63% 73%
Wind Speed: 7.9km/h 0km/h 2.1km/h
Wind Gust: 14.5km/h - -
Wind- - SSE
Pressure: 1024.4 hPa 1023.7 hPa -
Precipitation: 0.0 mm    
Historical Graphs
 
 
Tabular Data for April 30, 2021
Time Temperature Dew Point Pressure Wind Wind Speed Wind Gust Humidity Rainfall Rate (Hourly) solar
00:00 15 °C 8 °C 1024.0 hPa North 4.7 km/h 6.4 km/h 63% 0.0 mm 0 W/m2
00:05 14.9 °C 7.9 °C 1024.0 hPa NW 1.4 km/h 14.5 km/h 63% 0.0 mm 0 W/m2
00:10 14.9 °C 7.9 °C 1024.0 hPa West 4.7 km/h 12.9 km/h 63% 0.0 mm 0 W/m2
00:15 14.8 °C 8.1 °C 1024.0 hPa NNW 6.4 km/h 14.5 km/h 64% 0.0 mm 0 W/m2
00:20 14.7 °C 8 °C 1024.0 hPa WNW 1.4 km/h 11.3 km/h 64% 0.0 mm 0 W/m2
00:25 14.7 °C 8.2 °C 1024.0 hPa WNW 4.7 km/h 6.4 km/h 65% 0.0 mm 0 W/m2
00:31 14.6 °C 8.1 °C 1024.0 hPa WNW 4.7 km/h 11.3 km/h 65% 0.0 mm 0 W/m2
00:36 14.6 °C 8.3 °C 1024.0 hPa SW 4.7 km/h 6.4 km/h 66% 0.0 mm 0 W/m2
00:41 14.6 °C 8.3 °C 1024.0 hPa WNW 7.9 km/h 8 km/h 66% 0.0 mm 0 W/m2
00:46 14.5 °C 8.4 °C 1024.0 hPa NNW 1.4 km/h 6.4 km/h 67% 0.0 mm 0 W/m2
00:51 14.4 °C 8.3 °C 1024.0 hPa WNW 3.2 km/h 4.8 km/h 67% 0.0 mm 0 W/m2
00:56 14.3 °C 8.3 °C 1024.0 hPa West 3.2 km/h 3.2 km/h 67% 0.0 mm 0 W/m2
01:01 14.2 °C 8.4 °C 1024.0 hPa Calm   1.6 km/h 68% 0.0 mm 0 W/m2
01:06 14 °C 8.4 °C 1024.0 hPa South 1.4 km/h 3.2 km/h 69% 0.0 mm 0 W/m2
01:11 13.8 °C 8.4 °C 1024.0 hPa SE 1.4 km/h 3.2 km/h 70% 0.0 mm 0 W/m2
01:16 13.6 °C 8.2 °C 1024.0 hPa ENE 1.4 km/h 3.2 km/h 70% 0.0 mm 0 W/m2
01:21 13.6 °C 8.4 °C 1024.0 hPa WNW 1.4 km/h 6.4 km/h 71% 0.0 mm 0 W/m2
01:26 13.6 °C 8.4 °C 1024.0 hPa Calm   3.2 km/h 71% 0.0 mm 0 W/m2
01:31 13.5 °C 8.3 °C 1024.0 hPa WSW 1.4 km/h 3.2 km/h 71% 0.0 mm 0 W/m2
01:36 13.4 °C 8.2 °C 1024.0 hPa Calm   1.6 km/h 71% 0.0 mm 0 W/m2
01:41 13.4 °C 8.2 °C 1024.0 hPa Calm   4.8 km/h 71% 0.0 mm 0 W/m2
01:46 13.3 °C 8.2 °C 1024.0 hPa NNE 4.7 km/h 8 km/h 71% 0.0 mm 0 W/m2
01:51 13.3 °C 8.2 °C 1024.0 hPa Calm   3.2 km/h 71% 0.0 mm 0 W/m2
01:56 13.3 °C 8.2 °C 1024.0 hPa Calm   6.4 km/h 71% 0.0 mm 0 W/m2
02:01 13.3 °C 8.2 °C 1024.0 hPa ENE 4.7 km/h 6.4 km/h 71% 0.0 mm 0 W/m2
02:06 13.3 °C 8.2 °C 1024.0 hPa North 1.4 km/h 6.4 km/h 71% 0.0 mm 0 W/m2
02:11 13.2 °C 8.1 °C 1024.0 hPa East 3.2 km/h 4.8 km/h 71% 0.0 mm 0 W/m2
02:16 13.2 °C 8.1 °C 1024.0 hPa Calm   4.8 km/h 71% 0.0 mm 0 W/m2
02:21 13.1 °C 8 °C 1024.0 hPa Calm   4.8 km/h 71% 0.0 mm 0 W/m2
02:26 13.1 °C 8 °C 1024.0 hPa NNE 1.4 km/h 3.2 km/h 71% 0.0 mm 0 W/m2
02:31 13 °C 7.9 °C 1024.0 hPa Calm   1.6 km/h 71% 0.0 mm 0 W/m2
02:36 12.9 °C 8 °C 1024.0 hPa Calm   1.6 km/h 72% 0.0 mm 0 W/m2
02:41 12.8 °C 8.1 °C 1024.0 hPa Calm   1.6 km/h 73% 0.0 mm 0 W/m2
02:46 12.6 °C 7.9 °C 1023.7 hPa East 3.2 km/h 4.8 km/h 73% 0.0 mm 0 W/m2
02:51 12.5 °C 7.8 °C 1023.7 hPa East 3.2 km/h 3.2 km/h 73% 0.0 mm 0 W/m2
02:56 12.4 °C 7.7 °C 1023.7 hPa NNE 3.2 km/h 3.2 km/h 73% 0.0 mm 0 W/m2
03:02 12.4 °C 7.9 °C 1024.0 hPa Calm   1.6 km/h 74% 0.0 mm 0 W/m2
03:07 12.3 °C 7.8 °C 1023.7 hPa ESE 1.4 km/h 3.2 km/h 74% 0.0 mm 0 W/m2
03:12 12.1 °C 7.8 °C 1023.7 hPa ESE 1.4 km/h 3.2 km/h 75% 0.0 mm 0 W/m2
03:17 11.9 °C 7.6 °C 1024.0 hPa Calm   3.2 km/h 75% 0.0 mm 0 W/m2
03:22 11.7 °C 7.6 °C 1024.0 hPa Calm   1.6 km/h 76% 0.0 mm 0 W/m2
03:27 11.5 °C 7.4 °C 1023.7 hPa West 4.7 km/h 4.8 km/h 76% 0.0 mm 0 W/m2
03:32 11.5 °C 7.4 °C 1024.0 hPa WNW 1.4 km/h 3.2 km/h 76% 0.0 mm 0 W/m2
03:37 11.4 °C 7.3 °C 1024.0 hPa WSW 3.2 km/h 3.2 km/h 76% 0.0 mm 0 W/m2
03:42 11.4 °C 7.3 °C 1024.0 hPa Calm   3.2 km/h 76% 0.0 mm 0 W/m2
03:47 11.4 °C 7.3 °C 1023.7 hPa WNW 4.7 km/h 4.8 km/h 76% 0.0 mm 0 W/m2
03:52 11.4 °C 7.3 °C 1023.7 hPa North 1.4 km/h 6.4 km/h 76% 0.0 mm 0 W/m2
03:57 11.4 °C 7.3 °C 1023.7 hPa SSE 1.4 km/h 4.8 km/h 76% 0.0 mm 0 W/m2
04:02 11.4 °C 7.1 °C 1023.7 hPa NNE 1.4 km/h 4.8 km/h 75% 0.0 mm 0 W/m2
04:07 11.5 °C 7.2 °C 1023.7 hPa ENE 1.4 km/h 6.4 km/h 75% 0.0 mm 0 W/m2
04:12 11.5 °C 7 °C 1024.0 hPa ENE 3.2 km/h 3.2 km/h 74% 0.0 mm 0 W/m2
04:17 11.5 °C 7.2 °C 1024.0 hPa Calm   4.8 km/h 75% 0.0 mm 0 W/m2
04:22 11.4 °C 7.1 °C 1024.0 hPa NE 3.2 km/h 8 km/h 75% 0.0 mm 0 W/m2
04:27 11.5 °C 7.2 °C 1024.0 hPa Calm   1.6 km/h 75% 0.0 mm 0 W/m2
04:32 11.5 °C 7.2 °C 1024.0 hPa Calm   8 km/h 75% 0.0 mm 0 W/m2
04:37 11.4 °C 7.1 °C 1024.0 hPa SSE 1.4 km/h 4.8 km/h 75% 0.0 mm 0 W/m2
04:42 11.3 °C 7 °C 1024.0 hPa ESE 3.2 km/h 3.2 km/h 75% 0.0 mm 0 W/m2
04:47 11.3 °C 7 °C 1024.0 hPa East 3.2 km/h 8 km/h 75% 0.0 mm 0 W/m2
04:52 11.2 °C 6.9 °C 1024.0 hPa NW 4.7 km/h 12.9 km/h 75% 0.0 mm 0 W/m2
04:57 11.2 °C 6.9 °C 1024.0 hPa East 3.2 km/h 4.8 km/h 75% 0.0 mm 0 W/m2
05:02 11.2 °C 6.9 °C 1024.0 hPa ENE 1.4 km/h 12.9 km/h 75% 0.0 mm 0 W/m2
05:07 11.1 °C 7 °C 1024.0 hPa NE 3.2 km/h 4.8 km/h 76% 0.0 mm 0 W/m2
05:12 11 °C 6.9 °C 1024.0 hPa WNW 1.4 km/h 1.6 km/h 76% 0.0 mm 0 W/m2
05:17 10.9 °C 6.8 °C 1024.0 hPa North 3.2 km/h 4.8 km/h 76% 0.0 mm 0 W/m2
05:22 10.9 °C 6.8 °C 1024.0 hPa Calm   3.2 km/h 76% 0.0 mm 0 W/m2
05:27 10.8 °C 6.7 °C 1024.0 hPa ESE 1.4 km/h 9.7 km/h 76% 0.0 mm 0 W/m2
05:32 10.8 °C 6.7 °C 1024.0 hPa ENE 1.4 km/h 3.2 km/h 76% 0.0 mm 0 W/m2
05:37 10.7 °C 6.8 °C 1024.0 hPa Calm   1.6 km/h 77% 0.0 mm 5 W/m2
05:42 10.6 °C 6.7 °C 1024.0 hPa SE 3.2 km/h 4.8 km/h 77% 0.0 mm 5 W/m2
05:47 10.6 °C 6.7 °C 1024.0 hPa Calm   4.8 km/h 77% 0.0 mm 9 W/m2
05:52 10.5 °C 6.6 °C 1024.0 hPa Calm   1.6 km/h 77% 0.0 mm 11 W/m2
05:57 10.5 °C 6.8 °C 1024.0 hPa Calm   1.6 km/h 78% 0.0 mm 12 W/m2
06:02 10.4 °C 6.7 °C 1024.0 hPa South 3.2 km/h 3.2 km/h 78% 0.0 mm 14 W/m2
06:07 10.4 °C 6.7 °C 1023.7 hPa ESE 1.4 km/h 6.4 km/h 78% 0.0 mm 16 W/m2
06:12 10.4 °C 6.9 °C 1024.0 hPa ENE 1.4 km/h 4.8 km/h 79% 0.0 mm 19 W/m2
06:17 10.3 °C 6.8 °C 1024.0 hPa East 3.2 km/h 4.8 km/h 79% 0.0 mm 21 W/m2
06:22 10.3 °C 6.8 °C 1024.0 hPa Calm   3.2 km/h 79% 0.0 mm 23 W/m2
06:27 10.4 °C 6.9 °C 1024.0 hPa ENE 1.4 km/h 1.6 km/h 79% 0.0 mm 25 W/m2
06:32 10.4 °C 6.9 °C 1024.0 hPa NW 3.2 km/h 4.8 km/h 79% 0.0 mm 26 W/m2
06:37 10.4 °C 6.9 °C 1024.0 hPa Calm   4.8 km/h 79% 0.0 mm 26 W/m2
06:42 10.5 °C 7 °C 1024.0 hPa Calm   6.4 km/h 79% 0.0 mm 28 W/m2
06:47 10.6 °C 7.1 °C 1024.0 hPa East 3.2 km/h 9.7 km/h 79% 0.0 mm 30 W/m2
06:52 10.6 °C 7.1 °C 1024.0 hPa NE 3.2 km/h 3.2 km/h 79% 0.0 mm 32 W/m2
06:57 10.7 °C 7 °C 1024.0 hPa WNW 3.2 km/h 4.8 km/h 78% 0.0 mm 32 W/m2
07:02 10.7 °C 7 °C 1024.0 hPa NE 1.4 km/h 6.4 km/h 78% 0.0 mm 33 W/m2
07:07 10.7 °C 7 °C 1024.0 hPa NW 1.4 km/h 6.4 km/h 78% 0.0 mm 35 W/m2
07:12 10.8 °C 7.1 °C 1024.0 hPa WSW 3.2 km/h 6.4 km/h 78% 0.0 mm 35 W/m2
07:17 10.9 °C 7.2 °C 1024.0 hPa North 4.7 km/h 4.8 km/h 78% 0.0 mm 37 W/m2
07:22 11 °C 7.3 °C 1024.0 hPa North 1.4 km/h 4.8 km/h 78% 0.0 mm 37 W/m2
07:27 11.1 °C 7.4 °C 1024.0 hPa NNE 1.4 km/h 3.2 km/h 78% 0.0 mm 39 W/m2
07:32 11.2 °C 7.3 °C 1024.0 hPa NNW 4.7 km/h 4.8 km/h 77% 0.0 mm 40 W/m2
07:37 11.3 °C 7.4 °C 1024.0 hPa NNE 1.4 km/h 6.4 km/h 77% 0.0 mm 40 W/m2
07:42 11.4 °C 7.5 °C 1024.0 hPa West 1.4 km/h 3.2 km/h 77% 0.0 mm 162 W/m2
07:47 11.6 °C 7.7 °C 1024.0 hPa West 1.4 km/h 3.2 km/h 77% 0.0 mm 234 W/m2
07:52 11.7 °C 7.8 °C 1024.0 hPa NW 1.4 km/h 6.4 km/h 77% 0.0 mm 255 W/m2
07:57 11.9 °C 7.8 °C 1024.0 hPa WNW 4.7 km/h 8 km/h 76% 0.0 mm 195 W/m2
08:02 12.2 °C 8.1 °C 1024.0 hPa Calm   3.2 km/h 76% 0.0 mm 98 W/m2
08:07 12.5 °C 8.2 °C 1024.0 hPa WNW 1.4 km/h 3.2 km/h 75% 0.0 mm 53 W/m2
08:12 12.8 °C 8.3 °C 1024.0 hPa North 4.7 km/h 6.4 km/h 74% 0.0 mm 51 W/m2
08:17 12.8 °C 8.1 °C 1024.0 hPa NW 3.2 km/h 6.4 km/h 73% 0.0 mm 51 W/m2
08:22 13.1 °C 8.6 °C 1024.0 hPa East 3.2 km/h 4.8 km/h 74% 0.0 mm 51 W/m2
08:27 13.3 °C 8.6 °C 1024.0 hPa North 3.2 km/h 6.4 km/h 73% 0.0 mm 49 W/m2
08:32 13.7 °C 8.5 °C 1024.0 hPa ENE 6.4 km/h 9.7 km/h 71% 0.0 mm 51 W/m2
08:37 13.8 °C 8.6 °C 1024.0 hPa NW 1.4 km/h 4.8 km/h 71% 0.0 mm 51 W/m2
08:42 13.8 °C 8.4 °C 1024.0 hPa NNW 1.4 km/h 4.8 km/h 70% 0.0 mm 51 W/m2
08:47 14.1 °C 8.7 °C 1024.0 hPa North 1.4 km/h 4.8 km/h 70% 0.0 mm 53 W/m2
08:52 14.2 °C 8.8 °C 1024.0 hPa ESE 3.2 km/h 4.8 km/h 70% 0.0 mm 53 W/m2
08:57 14.6 °C 8.8 °C 1024.0 hPa SSE 1.4 km/h 12.9 km/h 68% 0.0 mm 114 W/m2
09:02 14.6 °C 8.5 °C 1024.0 hPa NNE 1.4 km/h 11.3 km/h 67% 0.0 mm 281 W/m2
09:07 14.6 °C 8.5 °C 1024.0 hPa NE 3.2 km/h 12.9 km/h 67% 0.0 mm 445 W/m2
09:12 14.7 °C 8.6 °C 1024.4 hPa ESE 4.7 km/h 11.3 km/h 67% 0.0 mm 473 W/m2
09:17 14.7 °C 8.9 °C 1024.4 hPa SE 1.4 km/h 4.8 km/h 68% 0.0 mm 483 W/m2
09:22 14.9 °C 8.8 °C 1024.4 hPa ESE 3.2 km/h 6.4 km/h 67% 0.0 mm 506 W/m2
09:27 15.1 °C 9 °C 1024.0 hPa Calm   6.4 km/h 67% 0.0 mm 517 W/m2
09:32 15.2 °C 8.9 °C 1024.4 hPa ENE 4.7 km/h 6.4 km/h 66% 0.0 mm 533 W/m2
09:37 15.2 °C 8.9 °C 1024.0 hPa ENE 3.2 km/h 8 km/h 66% 0.0 mm 554 W/m2
09:42 15.4 °C 9.1 °C 1024.0 hPa SSE 1.4 km/h 12.9 km/h 66% 0.0 mm 568 W/m2
09:47 15.6 °C 9 °C 1024.0 hPa ESE 1.4 km/h 9.7 km/h 65% 0.0 mm 577 W/m2
09:52 15.7 °C 9.4 °C 1024.0 hPa ENE 3.2 km/h 4.8 km/h 66% 0.0 mm 594 W/m2
09:57 15.8 °C 9.2 °C 1024.0 hPa Calm   6.4 km/h 65% 0.0 mm 598 W/m2
10:02 15.9 °C 9.3 °C 1024.0 hPa NW 1.4 km/h 8 km/h 65% 0.0 mm 60 W/m2
10:07 16.2 °C 9.4 °C 1024.0 hPa East 6.4 km/h 14.5 km/h 64% 0.0 mm 626 W/m2
10:12 16.1 °C 9.3 °C 1024.0 hPa North 3.2 km/h 3.2 km/h 64% 0.0 mm 640 W/m2
10:17 16.2 °C 9.4 °C 1024.0 hPa NNE 3.2 km/h 6.4 km/h 64% 0.0 mm 654 W/m2
10:23 16.4 °C 9.6 °C 1024.0 hPa ENE 3.2 km/h 6.4 km/h 64% 0.0 mm 673 W/m2
Juneau County Weather
Compliments of Weather Underground - 2 mb